Location: Berlin
(52.5170°N, 13.3889°E)
Time: 23:38:36
(UTC+02:00)

LES 1 - Pass Details

Date: 25 June 2025
Orbit: 2779 x 2808 km, 32.1° (Epoch: 12 July)

Event Time Altitude Azimuth Distance (km) Brightness Sun altitude
Rises 03:23:25 0° 267° (W) 6,576 11.9 -8.6°
Reaches altitude 10° 03:29:02 10° 253° (WSW) 5,557 11.4 -8.2°
Maximum altitude 03:39:44 22° 210° (SSW) 4,612 10.9 -7.3°
Drops below altitude 10° 03:50:29 10° 166° (SSE) 5,563 11.5 -6.4°
Sets 03:56:11 0° 152° (SSE) 6,585 12.0 -5.8°
